Regional Weather Roundup
Issued by NWS

Home | Current Version | Previous Version | Text Only | Print | Product List | Glossary Off
Versions: 1 2 3 4 5 6 7 8 9 10 11 12 13 14 15 16 17 18 19 20 21 22 23 24 25 26 27 28 29 30 31 32 33 34 35 36 37 38 39 40 41 42 43 44 45 46 47 48 49 50

000
ASUS43 KLSX 301010
RWRMO

WEATHER SUMMARY FOR MISSOURI
NATIONAL WEATHER SERVICE SPRINGFIELD MO
500 AM CDT TUE AUG 30 2016

NOTE: "FAIR" INDICATES FEW OR NO CLOUDS BELOW 12,000 FEET WITH NO
       SIGNIFICANT WEATHER AND/OR OBSTRUCTIONS TO VISIBILITY.
       CURRENT SKY AND/OR WEATHER CONDITIONS ARE NOT AVAILABLE FOR
       CHILLICOTHE AND FARMINGTON.

MOZ001>031-035>038-043-044-053-054-301100-
...NORTHERN AND WESTERN MISSOURI...

CITY           SKY/WX    TMP DP  RH WIND       PRES   REMARKS
KANSAS CTY INT CLOUDY    71  68  90 E8        30.15F
KANSAS C DTWN  CLOUDY    72  69  90 E7        30.15F
LEE`S SUMMIT   LGT RAIN  70  69  97 N6        30.16F
ST JOSEPH      MOCLDY    71  69  93 CALM      30.16R
CHILLICOTHE      N/A     72  69  90 CALM      30.18R
KIRKSVILLE     PTCLDY    70  68  93 NE5       30.16S

$$
MOZ066>068-077>081-088>096-101>105-301100-
...SOUTHWEST MISSOURI...

CITY           SKY/WX    TMP DP  RH WIND       PRES   REMARKS
SPRINGFIELD    CLEAR     72  68  87 CALM      30.13F
JOPLIN         PTCLDY    71  69  93 CALM      30.13S
BRANSON        CLOUDY    68  68 100 CALM      30.14S FOG

$$
MOZ032>034-039>042-045>050-055>058-069>072-301100-
...CENTRAL MISSOURI...

CITY           SKY/WX    TMP DP  RH WIND       PRES   REMARKS
COLUMBIA       CLEAR     72  71  97 E3        30.14R FOG
JEFFERSON CITY CLEAR     72  70  93 CALM      30.13S
ROLLA          CLEAR     72  70  93 SE5       30.14R
SEDALIA        PTCLDY    75  72  90 NW5       30.15R
WHITEMAN AFB   MOCLDY    72  72 100 N6        30.13F
OSAGE BEACH    CLEAR     71  70  96 CALM      30.14S FOG

$$
MOZ051-052-059>065-301100-
...EAST CENTRAL MISSOURI...

CITY           SKY/WX    TMP DP  RH WIND       PRES   REMARKS
ST LOUIS INTL  CLEAR     78  72  81 E3        30.13S
SPIRIT OF STL  CLEAR     72  72 100 CALM      30.11S FOG
ST CHARLES     FOG       73  73 100 CALM      30.11S VSB 1

$$
MOZ072>076-082>087-097>100-106>115-301100-
...SOUTH CENTRAL AND SOUTHEAST MISSOURI...

CITY           SKY/WX    TMP DP  RH WIND       PRES   REMARKS
CAPE GIRARDEAU FOG       70  69  97 CALM      30.09S VSB 1/2
FARMINGTON     CLEAR     70  69  97 CALM      30.14S
POPLAR BLUFF   CLEAR     74  72  93 N3        30.08S
WEST PLAINS    PTCLDY    72  69  90 N3        30.16R

$$




USA.gov is the U.S. government's official web portal to all federal, state and local government web resources and services.